This is the latest recevied weather packets stored in our database for station/object WX4LTG. If no packets are shown the sender has not sent any weather packets the latest 10 day(s).
| Time | Temp. | Humidity | Pressure | Rain* | Wind** | Luminosity | Snow |
|---|---|---|---|---|---|---|---|
| 1777655335 | 25.56° C | 33% | 1012.8 hPa | 0 mm | - | 586 W/m² | - |
| 1777655032 | 25.56° C | 33% | 1012.9 hPa | 0 mm | - | 576 W/m² | - |
| 1777654730 | 25.56° C | 33% | 1012.9 hPa | 0 mm | - | 564 W/m² | - |
| 1777654428 | 25° C | 34% | 1012.8 hPa | 0 mm | - | 550 W/m² | - |
| 1777654125 | 25° C | 35% | 1012.6 hPa | 0 mm | - | 539 W/m² | - |
| 1777653823 | 25° C | 34% | 1012.8 hPa | 0 mm | - | 528 W/m² | - |
| 1777653518 | 25° C | 34% | 1012.9 hPa | 0 mm | - | 515 W/m² | - |
| 1777653215 | 25° C | 35% | 1012.9 hPa | 0 mm | - | 503 W/m² | - |
| 1777652912 | 25° C | 34% | 1013.1 hPa | 0 mm | - | 490 W/m² | - |
| 1777652609 | 24.44° C | 36% | 1012.9 hPa | 0 mm | - | 478 W/m² | - |
| 1777652306 | 24.44° C | 35% | 1012.8 hPa | 0 mm | - | 465 W/m² | - |
| 1777652003 | 24.44° C | 35% | 1012.9 hPa | 0 mm | - | 452 W/m² | - |
| 1777651699 | 25° C | 35% | 1012.8 hPa | 0 mm | - | 437 W/m² | - |
| 1777651396 | 25° C | 35% | 1013 hPa | 0 mm | - | 423 W/m² | - |
| 1777651094 | 24.44° C | 36% | 1012.6 hPa | 0 mm | - | 410 W/m² | - |
| 1777650790 | 24.44° C | 36% | 1012.6 hPa | 0 mm | - | 397 W/m² | - |
| 1777650487 | 23.89° C | 37% | 1012.7 hPa | 0 mm | - | 384 W/m² | - |
| 1777650184 | 23.89° C | 38% | 1012.4 hPa | 0 mm | - | 369 W/m² | - |
| 1777649882 | 23.33° C | 38% | 1012.4 hPa | 0 mm | - | 351 W/m² | - |
| 1777649579 | 23.33° C | 38% | 1012.7 hPa | 0 mm | - | 338 W/m² | - |
| 1777649275 | 23.89° C | 38% | 1012.4 hPa | 0 mm | - | 335 W/m² | - |
| 1777648972 | 23.33° C | 38% | 1012.4 hPa | 0 mm | - | 313 W/m² | - |
| 1777648670 | 23.33° C | 39% | 1012.6 hPa | 0 mm | - | 294 W/m² | - |
| 1777648365 | 22.78° C | 39% | 1012.3 hPa | 0 mm | - | 282 W/m² | - |
| 1777648062 | 22.78° C | 40% | 1012.1 hPa | 0 mm | - | 265 W/m² | - |
* Rain latest hour (hover to see other rain measurements)
** Current wind speed in m/s (hover to see current wind gust speed)